Weather History for Safford, AZ

Change the Weather History Date:

Thursday, September 12, 2013

  Actual Average Record
Temperature  
Mean Temperature 78 °F -  
Max Temperature 91 °F 93 °F 102 °F (2004)
Min Temperature 66 °F 60 °F 48 °F (1950)
Cooling Degree Days 14    
Growing Degree Days 28 (Base 50)    
Moisture  
Dew Point 59 °F    
Average Humidity 53    
Maximum Humidity 79    
Minimum Humidity 31    
Precipitation  
Precipitation 0.00 in - - ()
Sea Level Pressure  
Sea Level Pressure 29.81 in    
Wind  
Wind Speed 5 mph (SE)    
Max Wind Speed 23 mph    
Max Gust Speed 28 mph    
Visibility 10 miles    
Events Thunderstorm    
Averages and records for this station are not official NWS values.
T = Trace of Precipitation, MM = Missing Value Source: NWS Daily Summary

Daily Weather History Graph

Daily Weather History Graph

Search for Another Location

Airport:

Trip Planner

Search our weather history database for the weather conditions in past years. The results will help you decide how hot, cold, wet, or windy it might be!

Date:

Astronomy

Sep. 12, 2013 Rise Set
Actual Time 6:00 AM MST 6:28 PM MST
Civil Twilight 5:35 AM MST 6:53 PM MST
Nautical Twilight 5:06 AM MST 7:22 PM MST
Astronomical Twilight 4:36 AM MST 7:51 PM MST
Moon 1:10 PM MST (9/12) 11:47 PM MST (9/12)
Length of Visible Light 13h 17m
Length of Day
12h 27m
Waxing Crescent, 51% of the Moon is Illuminated
Sep 12
Waxing Crescent
Sep 19
Full
Sep 26
Last Quarter
Oct 4
New
Oct 11
First Quarter

Hourly Weather History & Observations

Time (MST) Temp. Heat Index Dew Point Humidity Pressure Visibility Wind Dir Wind Speed Gust Speed Precip Events Conditions
12:51 AM 71.1 °F - 60.1 °F 68% 29.83 in 10.0 mi WNW 3.5 mph - N/A   Mostly Cloudy
1:51 AM 70.0 °F - 59.0 °F 68% 29.83 in 10.0 mi Calm Calm - N/A   Partly Cloudy
2:51 AM 68.0 °F - 60.1 °F 76% 29.82 in 10.0 mi Calm Calm - N/A   Mostly Cloudy
3:51 AM 68.0 °F - 60.1 °F 76% 29.83 in 10.0 mi East 4.6 mph - N/A   Scattered Clouds
4:51 AM 69.1 °F - 60.1 °F 73% 29.83 in 10.0 mi ENE 3.5 mph - N/A   Mostly Cloudy
5:51 AM 66.9 °F - 60.1 °F 79% 29.85 in 10.0 mi Calm Calm - N/A   Clear
6:51 AM 70.0 °F - 60.1 °F 71% 29.86 in 10.0 mi ESE 3.5 mph - N/A   Scattered Clouds
7:51 AM 75.0 °F - 55.9 °F 51% 29.87 in 10.0 mi East 4.6 mph - N/A   Clear
8:51 AM 78.1 °F - 55.9 °F 46% 29.87 in 10.0 mi SE 8.1 mph - N/A   Clear
9:51 AM 80.1 °F 80.4 °F 57.0 °F 45% 29.87 in 10.0 mi SSE 4.6 mph - N/A   Clear
10:51 AM 82.9 °F 82.4 °F 57.0 °F 41% 29.85 in 10.0 mi Calm Calm - N/A   Clear
11:51 AM 87.1 °F 85.9 °F 57.0 °F 36% 29.81 in 10.0 mi Variable 3.5 mph - N/A   Clear
12:51 PM 87.1 °F 85.9 °F 57.0 °F 36% 29.79 in 10.0 mi South 6.9 mph - N/A   Clear
1:51 PM 90.0 °F 88.8 °F 57.9 °F 34% 29.75 in 10.0 mi SSW 8.1 mph - N/A   Clear
2:51 PM 91.0 °F 89.7 °F 57.0 °F 32% 29.72 in 10.0 mi SSW 9.2 mph - N/A   Clear
3:34 PM 89.6 °F 87.7 °F 55.4 °F 31% 29.86 in 10.0 mi Calm Calm - N/A Thunderstorm Clear
3:51 PM 91.0 °F 90.2 °F 59.0 °F 34% 29.71 in 10.0 mi SE 23.0 mph 27.6 mph N/A   Partly Cloudy
4:08 PM 84.2 °F 83.8 °F 59.0 °F 42% 29.87 in 10.0 mi SE 19.6 mph 27.6 mph N/A   Clear
4:51 PM 86.0 °F 86.1 °F 61.0 °F 43% 29.72 in 10.0 mi SE 13.8 mph - N/A   Clear
5:51 PM 84.0 °F 84.5 °F 62.1 °F 47% 29.74 in 10.0 mi SSE 10.4 mph - N/A   Clear
6:51 PM 82.0 °F 83.0 °F 62.1 °F 51% 29.76 in 10.0 mi SE 11.5 mph - N/A   Partly Cloudy
7:51 PM 81.0 °F 81.9 °F 62.1 °F 52% 29.78 in 10.0 mi ESE 11.5 mph - N/A   Overcast
8:51 PM 79.0 °F - 63.0 °F 58% 29.81 in 10.0 mi SE 9.2 mph - N/A   Partly Cloudy
9:51 PM 77.0 °F - 63.0 °F 62% 29.81 in 10.0 mi ESE 13.8 mph - N/A   Clear
10:51 PM 77.0 °F - 62.1 °F 60% 29.81 in 10.0 mi East 11.5 mph - N/A   Overcast
11:51 PM 77.0 °F - 62.1 °F 60% 29.80 in 10.0 mi East 9.2 mph - N/A   Overcast